Location: Bagnolo San Vito
(45.0833°N, 10.8833°E)
Time: 00:23:49
(UTC+00:00)

Resurs 1-3 - Pass Details

Date: 03 March 2021
Orbit: 629 x 633 km, 97.9° (Epoch: 17 April)

Event Time Altitude Azimuth Distance (km) Brightness Sun altitude
Exits shadow 19:38:50 52° 333° (NNW) 791 4.2 -27.3°
Drops below altitude 10° 19:42:14 10° 345° (NNW) 2,026 6.6 -27.9°
Sets 19:44:26 0° 346° (NNW) 2,939 7.5 -28.2°
